Weather History for Vero Beach, FL

Change the Weather History Date:

Tuesday, May 12, 2009

  Actual Average Record
Temperature  
Mean Temperature 79 °F 76 °F  
Max Temperature 88 °F 84 °F 95 °F (2003)
Min Temperature 70 °F 67 °F 55 °F (1986)
Degree Days  
Heating Degree Days 0 0  
Month to date heating degree days 0 0  
Since 1 July heating degree days 545 455  
Cooling Degree Days 14 10  
Month to date cooling degree days 138 113  
Year to date cooling degree days 515 571  
Growing Degree Days 28 (Base 50)    
Moisture  
Dew Point 70 °F    
Average Humidity 76    
Maximum Humidity 97    
Minimum Humidity 55    
Precipitation  
Precipitation 0.10 in 0.09 in 1.50 in (1968)
Month to date precipitation 0.10 0.99  
Year to date precipitation 4.89 13.00  
Sea Level Pressure  
Sea Level Pressure 30.02 in    
Wind  
Wind Speed 8 mph (ESE)    
Max Wind Speed 20 mph    
Max Gust Speed 24 mph    
Visibility 8 miles    
Events Rain , Thunderstorm    
T = Trace of Precipitation, MM = Missing Value Source: NWS Daily Summary

Daily Weather History Graph

Daily Weather History Graph

Search for Another Location

Airport:

Trip Planner

Search our weather history database for the weather conditions in past years. The results will help you decide how hot, cold, wet, or windy it might be!

Date:

Astronomy

May. 12, 2009 Rise Set
Actual Time 6:34 AM EDT 8:02 PM EDT
Civil Twilight 6:08 AM EDT 8:27 PM EDT
Nautical Twilight 5:38 AM EDT 8:57 PM EDT
Astronomical Twilight 5:07 AM EDT 9:29 PM EDT
Moon 11:27 PM EDT (5/12) 8:59 AM EDT (5/12)
Length of Visible Light 14h 18m
Length of Day
13h 27m
Waning Gibbous, 89% of the Moon is Illuminated
May 12
Waning Gibbous
May 17
Last Quarter
May 24
New
May 30
First Quarter
Jun 7
Full

Hourly Weather History & Observations

Time (EDT) Temp. Heat Index Dew Point Humidity Pressure Visibility Wind Dir Wind Speed Gust Speed Precip Events Conditions
1:20 AM 75.2 °F - 69.8 °F 83% 30.02 in 2.5 mi Calm Calm - N/A   Haze
1:29 AM 75.2 °F - 69.8 °F 83% 30.02 in 6.0 mi South 3.5 mph - N/A   Haze
1:53 AM 73.9 °F - 68.0 °F 82% 30.01 in 6.0 mi SE 3.5 mph - N/A   Haze
2:53 AM 73.0 °F - 68.0 °F 84% 29.99 in 8.0 mi Calm Calm - N/A   Clear
3:53 AM 75.0 °F - 69.1 °F 82% 29.98 in 10.0 mi SE 6.9 mph - N/A   Clear
5:53 AM 71.1 °F - 70.0 °F 96% 29.98 in 2.5 mi ESE 5.8 mph - N/A   Clear
6:09 AM 71.6 °F - 71.6 °F 100% 29.99 in 8.0 mi ESE 5.8 mph - N/A   Clear
6:53 AM 73.9 °F - 71.1 °F 91% 30.00 in 10.0 mi Calm Calm - N/A   Clear
7:17 AM 73.4 °F - 71.6 °F 94% 30.00 in 1.8 mi South 6.9 mph - N/A   Clear
7:24 AM 73.4 °F - 71.6 °F 94% 30.01 in 10.0 mi South 5.8 mph - N/A   Clear
8:53 AM 80.1 °F 83.6 °F 71.1 °F 74% 30.03 in 10.0 mi South 6.9 mph - N/A   Clear
9:53 AM 82.9 °F 85.8 °F 68.0 °F 60% 30.04 in 10.0 mi SW 9.2 mph - N/A   Clear
10:53 AM 86.0 °F 89.4 °F 68.0 °F 55% 30.04 in 10.0 mi SE 6.9 mph - N/A   Scattered Clouds
11:53 AM 87.1 °F 93.6 °F 72.0 °F 61% 30.04 in 10.0 mi ESE 11.5 mph - N/A   Clear
12:53 PM 84.9 °F 89.4 °F 70.0 °F 61% 30.03 in 10.0 mi ESE 13.8 mph - N/A   Scattered Clouds
1:53 PM 87.1 °F 92.0 °F 70.0 °F 57% 30.02 in 10.0 mi East 15.0 mph - N/A   Clear
2:53 PM 82.0 °F 86.7 °F 72.0 °F 71% 30.01 in 10.0 mi ESE 13.8 mph - N/A   Clear
3:53 PM 82.0 °F 86.7 °F 72.0 °F 71% 30.00 in 10.0 mi SE 16.1 mph 23.0 mph N/A   Clear
4:53 PM 82.0 °F 86.7 °F 72.0 °F 71% 29.99 in 10.0 mi SSE 15.0 mph - N/A   Partly Cloudy
5:53 PM 80.1 °F 83.6 °F 71.1 °F 74% 29.98 in 10.0 mi ESE 11.5 mph - N/A   Clear
6:38 PM 80.6 °F 84.6 °F 71.6 °F 74% 30.01 in 10.0 mi SE 9.2 mph - N/A   Mostly Cloudy
6:53 PM 80.1 °F 83.6 °F 71.1 °F 74% 30.02 in 10.0 mi ESE 12.7 mph - N/A   Mostly Cloudy
7:53 PM 79.0 °F - 71.1 °F 77% 30.04 in 4.0 mi ESE 4.6 mph - N/A   Haze
8:01 PM 78.8 °F - 71.6 °F 78% 30.04 in 8.0 mi ESE 5.8 mph - N/A Thunderstorm Clear
8:39 PM 73.4 °F - 66.2 °F 78% 30.07 in 8.0 mi NE 10.4 mph - 0.00 in Rain Light Rain
8:53 PM 73.0 °F - 68.0 °F 84% 30.05 in 5.0 mi NE 8.1 mph - 0.02 in Rain Rain
9:53 PM 71.1 °F - 68.0 °F 90% 30.06 in 8.0 mi NE 3.5 mph - 0.03 in Rain Light Rain
10:53 PM 70.0 °F - 68.0 °F 93% 30.06 in 7.0 mi NE 4.6 mph - 0.04 in Rain Light Rain
11:53 PM 72.0 °F - 70.0 °F 93% 30.05 in 10.0 mi SE 3.5 mph - 0.01 in   Clear